Location: Strawberry
(45.6646°N, 111.9596°W)
Time: 20:52:35
(UTC+00:00)

Explorer 11/Cluster Stage 4 - Pass Details

Date: 06 October 2022
Orbit: 466 x 1248 km, 28.8° (Epoch: 28 November)

Event Time Altitude Azimuth Distance (km) Brightness Sun altitude
Rises 21:58:08 0° 252° (WSW) 4,074 11.2 27.5°
Reaches altitude 10° 22:03:36 10° 222° (SW) 2,958 11.3 26.8°
Maximum altitude 22:05:43 11° 205° (SSW) 2,780 10.7 26.5°
Drops below altitude 10° 22:07:45 10° 188° (S) 2,804 10.3 26.2°
Sets 22:12:29 0° 156° (SSE) 3,538 10.1 25.6°
